User: anonymous   Login
Location: Unspecified
(0.0000°N, 0.0000°E)
Time: 02:45:21
(UTC+00:00)
Language:

USA 32 - Orbit

View from above orbital plane
View from above orbital plane
View from above satellite
View from above satellite

Ground track
Ground track

The orbit data is extracted from the following two-line orbital elements,

1 19460U 88078A   20029.20752440 0.00000000  00000-0  00000-0 0    01
2 19460  84.9887  27.0254 0003998  34.4229 325.5769 14.33486843    00
Epoch (UTC): 29 January 2020 04:58:50
Eccentricity: 0.0003998
inclination: 84.9887°
perigee height: 777 km
apogee height: 783 km
right ascension of ascending node: 27.0254°
argument of perigee: 34.4229°
revolutions per day: 14.33486843
mean anomaly at epoch: 325.5769°
orbit number at epoch: 0

The dashed part of the orbit path shows where the satellite is in the earth's shadow,  

DLR